N4XWC Weather Reports


time (UTC)temp
C
wind
direction
speed
KPH
gust
KPH
rain 1hr
cm
rain 24hr
cm
rain mn
cm
humidity
%
barometer
mb
20260504070214 12 223 3.2 4.8 0.00 0.00 0.00 66 1016.9
20260504060213 14 169 1.6 3.2 0.00 0.00 0.00 58 1017.4
20260504050443 14 244 0.0 3.2 0.00 0.00 0.00 60 1018.0
20260504050213 14 248 0.0 3.2 0.00 0.00 0.00 60 1018.0
20260504045943 14 239 0.0 3.2 0.00 0.00 0.00 61 1018.0
20260504045443 14 244 1.6 4.8 0.00 0.00 0.00 62 1018.0
20260504045215 14 237 1.6 3.2 0.00 0.00 0.00 62 1018.0
20260504044944 14 241 3.2 4.8 0.00 0.00 0.00 62 1018.0
20260504044444 14 248 3.2 3.2 0.00 0.00 0.00 61 1018.0
20260504044215 14 246 0.0 3.2 0.00 0.00 0.00 60 1018.0
20260504043944 14 232 0.0 1.6 0.00 0.00 0.00 60 1018.0
20260504043444 14 208 0.0 0.0 0.00 0.00 0.00 60 1018.0
20260504043215 14 208 0.0 0.0 0.00 0.00 0.00 59 1018.0
20260504042944 15 208 0.0 0.0 0.00 0.00 0.00 58 1018.0
20260504042443 15 215 1.6 1.6 0.00 0.00 0.00 58 1018.0
20260504042215 15 226 0.0 0.0 0.00 0.00 0.00 58 1018.0
20260504041944 15 226 0.0 0.0 0.00 0.00 0.00 58 1018.0
20260504041444 15 229 0.0 0.0 0.00 0.00 0.00 57 1018.1
20260504041216 15 224 0.0 1.6 0.00 0.00 0.00 57 1018.1
20260504040944 15 224 0.0 0.0 0.00 0.00 0.00 57 1018.1
20260504040443 15 253 0.0 1.6 0.00 0.00 0.00 55 1018.1
20260504040213 15 253 0.0 1.6 0.00 0.00 0.00 55 1018.1
20260504035944 15 258 1.6 3.2 0.00 0.00 0.00 55 1018.1
20260504035444 15 271 3.2 3.2 0.00 0.00 0.00 55 1018.1
20260504035215 15 256 1.6 3.2 0.00 0.00 0.00 54 1018.1
20260504034944 16 254 1.6 4.8 0.00 0.00 0.00 54 1018.1
20260504034443 16 256 3.2 3.2 0.00 0.00 0.00 54 1018.2
20260504034214 16 261 1.6 3.2 0.00 0.00 0.00 54 1018.2
20260504033944 16 282 1.6 4.8 0.00 0.00 0.00 54 1018.2
20260504033444 16 261 3.2 4.8 0.00 0.00 0.00 53 1018.2
20260504033215 16 272 4.8 4.8 0.00 0.00 0.00 53 1018.2
20260504032943 16 270 3.2 4.8 0.00 0.00 0.00 53 1018.5
20260504032444 16 271 4.8 4.8 0.00 0.00 0.00 53 1018.5
20260504032214 16 284 1.6 6.4 0.00 0.00 0.00 53 1018.5
20260504031945 16 299 1.6 4.8 0.00 0.00 0.00 53 1018.5
20260504031443 16 284 4.8 4.8 0.00 0.00 0.00 52 1018.5
20260504031215 16 291 4.8 8.0 0.00 0.00 0.00 52 1018.5
20260504030943 16 250 3.2 6.4 0.00 0.00 0.00 52 1018.5
20260504030444 16 264 4.8 4.8 0.00 0.00 0.00 51 1018.5
20260504030213 16 263 0.0 4.8 0.00 0.00 0.00 51 1018.5
20260504025944 16 278 1.6 6.4 0.00 0.00 0.00 51 1018.5
20260504025444 16 260 1.6 8.0 0.00 0.00 0.00 50 1018.5
20260504025215 16 261 1.6 6.4 0.00 0.00 0.00 50 1018.5
20260504024944 16 294 3.2 11.3 0.00 0.00 0.00 50 1018.5
20260504024443 16 313 3.2 4.8 0.00 0.00 0.00 50 1018.2
20260504024215 16 274 4.8 8.0 0.00 0.00 0.00 50 1018.2
20260504023943 16 265 3.2 4.8 0.00 0.00 0.00 50 1018.2
20260504023445 16 298 1.6 4.8 0.00 0.00 0.00 50 1018.2
20260504023214 16 272 3.2 6.4 0.00 0.00 0.00 50 1018.2
20260504022944 16 256 3.2 6.4 0.00 0.00 0.00 50 1018.0
20260504022444 16 264 3.2 8.0 0.00 0.00 0.00 50 1018.0
20260504022214 16 248 1.6 6.4 0.00 0.00 0.00 50 1018.0
20260504021943 16 277 4.8 4.8 0.00 0.00 0.00 50 1018.0
20260504021445 16 270 3.2 6.4 0.00 0.00 0.00 50 1018.0
20260504021215 16 272 1.6 4.8 0.00 0.00 0.00 50 1018.0
20260504020944 16 275 1.6 6.4 0.00 0.00 0.00 50 1018.0
20260504020444 16 282 1.6 4.8 0.00 0.00 0.00 50 1018.0
20260504020214 16 325 1.6 4.8 0.00 0.00 0.00 50 1018.0
20260504020007 16 271 3.2 8.0 0.00 0.00 0.00 50 1018.0
20260504015508 16 254 3.2 3.2 0.00 0.00 0.00 51 1017.9
20260504015214 16 272 3.2 4.8 0.00 0.00 0.00 50 1017.9
20260504015008 16 275 3.2 4.8 0.00 0.00 0.00 50 1017.9
20260504014508 16 281 1.6 4.8 0.00 0.00 0.00 50 1017.9
20260504014214 16 278 3.2 6.4 0.00 0.00 0.00 50 1017.7
20260504014008 16 280 3.2 4.8 0.00 0.00 0.00 51 1017.7
20260504013507 16 281 3.2 4.8 0.00 0.00 0.00 51 1017.7
20260504013214 16 281 4.8 4.8 0.00 0.00 0.00 50 1017.7
20260504013008 16 256 1.6 4.8 0.00 0.00 0.00 50 1017.7
20260504012508 16 251 0.0 4.8 0.00 0.00 0.00 51 1017.6
20260504012214 16 251 3.2 3.2 0.00 0.00 0.00 51 1017.6
20260504012007 16 264 1.6 4.8 0.00 0.00 0.00 51 1017.6
20260504011508 16 268 1.6 3.2 0.00 0.00 0.00 51 1017.6
20260504011214 16 263 1.6 3.2 0.00 0.00 0.00 51 1017.8
20260504011008 16 251 3.2 3.2 0.00 0.00 0.00 51 1017.8
20260504010508 16 258 1.6 1.6 0.00 0.00 0.00 51 1017.8
20260504010213 16 253 0.0 3.2 0.00 0.00 0.00 51 1017.8
20260504010008 16 257 3.2 3.2 0.00 0.00 0.00 51 1017.8
20260504005508 16 264 3.2 3.2 0.00 0.00 0.00 51 1017.7
20260504005216 16 267 1.6 3.2 0.00 0.00 0.00 51 1017.7
20260504005008 16 267 3.2 3.2 0.00 0.00 0.00 51 1017.7
20260504004509 16 265 1.6 3.2 0.00 0.00 0.00 50 1017.7
20260504004214 16 268 1.6 3.2 0.00 0.00 0.00 50 1017.5
20260504004008 16 289 1.6 3.2 0.00 0.00 0.00 50 1017.5
20260504003508 16 256 1.6 3.2 0.00 0.00 0.00 50 1017.5
20260504003215 16 263 1.6 3.2 0.00 0.00 0.00 49 1017.5
20260504003008 16 278 1.6 3.2 0.00 0.00 0.00 49 1017.5
20260504002509 17 285 1.6 3.2 0.00 0.00 0.00 49 1017.4
20260504002215 17 288 3.2 3.2 0.00 0.00 0.00 49 1017.4
20260504002008 17 294 0.0 1.6 0.00 0.00 0.00 49 1017.4
20260504001507 17 284 1.6 3.2 0.00 0.00 0.00 49 1017.4
20260504001248 17 298 1.6 1.6 0.00 0.00 0.00 49 1017.6
20260504001214 17 298 1.6 1.6 0.00 0.00 0.00 49 1017.6
20260504001008 17 291 0.0 3.2 0.00 0.00 0.00 48 1017.6
20260504000508 17 282 0.0 1.6 0.00 0.00 0.00 47 1017.6
20260504000215 17 265 3.2 3.2 0.00 0.00 0.00 47 1017.6
20260504000008 17 263 3.2 3.2 0.00 0.00 0.00 48 1017.6
20260503235507 18 281 0.0 1.6 0.00 0.00 0.00 48 1017.6
20260503235214 18 288 0.0 1.6 0.00 0.00 0.00 46 1017.6
20260503235008 18 288 3.2 3.2 0.00 0.00 0.00 47 1017.6
20260503234507 18 281 1.6 3.2 0.00 0.00 0.00 46 1017.6
20260503234215 18 289 1.6 1.6 0.00 0.00 0.00 46 1017.6
20260503234009 18 289 0.0 1.6 0.00 0.00 0.00 46 1017.6
20260503233508 18 282 3.2 4.8 0.00 0.00 0.00 45 1017.6
20260503233214 18 295 0.0 1.6 0.00 0.00 0.00 45 1017.6
20260503233008 18 298 1.6 8.0 0.00 0.00 0.00 45 1017.6
20260503232510 18 264 0.0 1.6 0.00 0.00 0.00 43 1017.6
20260503232214 18 311 4.8 4.8 0.00 0.00 0.00 43 1017.6
20260503232008 18 305 3.2 8.0 0.00 0.00 0.00 44 1017.6
20260503231508 18 292 1.6 8.0 0.00 0.00 0.00 42 1017.6
20260503231214 18 302 4.8 4.8 0.00 0.00 0.00 43 1017.5
20260503231007 18 319 1.6 4.8 0.00 0.00 0.00 43 1017.5
20260503230509 18 308 1.6 1.6 0.00 0.00 0.00 43 1017.5
20260503230214 19 309 6.4 6.4 0.00 0.00 0.00 43 1017.5
20260503230009 19 272 1.6 4.8 0.00 0.00 0.00 43 1017.5
20260503225508 19 282 1.6 4.8 0.00 0.00 0.00 42 1017.6
20260503225215 19 294 0.0 1.6 0.00 0.00 0.00 41 1017.6
20260503225007 19 284 4.8 6.4 0.00 0.00 0.00 42 1017.6
20260503224508 19 291 3.2 6.4 0.00 0.00 0.00 42 1017.6
20260503224214 19 229 1.6 4.8 0.00 0.00 0.00 44 1017.7
20260503224007 19 0 3.2 3.2 0.00 0.00 0.00 42 1017.7
20260503223508 19 318 0.0 1.6 0.00 0.00 0.00 41 1017.7
20260503223214 19 280 0.0 0.0 0.00 0.00 0.00 41 1017.7
20260503223008 19 278 0.0 3.2 0.00 0.00 0.00 41 1017.7
20260503222509 19 320 3.2 3.2 0.00 0.00 0.00 42 1017.9
20260503222214 19 335 1.6 6.4 0.00 0.00 0.00 42 1017.9
20260503222009 19 329 1.6 4.8 0.00 0.00 0.00 41 1017.9
20260503221509 19 330 4.8 4.8 0.00 0.00 0.00 40 1017.9
20260503221217 19 20 6.4 8.0 0.00 0.00 0.00 40 1017.9
20260503221008 19 6 6.4 6.4 0.00 0.00 0.00 42 1017.9
20260503220508 19 312 1.6 4.8 0.00 0.00 0.00 42 1017.9
20260503220215 19 313 6.4 9.7 0.00 0.00 0.00 44 1017.9
20260503220009 19 350 4.8 11.3 0.00 0.00 0.00 43 1017.9
20260503215509 19 295 0.0 4.8 0.00 0.00 0.00 40 1018.1
20260503215214 19 27 3.2 11.3 0.00 0.00 0.00 40 1018.1
20260503215008 19 313 0.0 4.8 0.00 0.00 0.00 41 1018.1
20260503214508 19 281 0.0 1.6 0.00 0.00 0.00 41 1018.1
20260503214215 20 0 4.8 9.7 0.00 0.00 0.00 41 1018.2
20260503214009 20 260 9.7 11.3 0.00 0.00 0.00 41 1018.2
20260503213509 20 285 1.6 6.4 0.00 0.00 0.00 44 1018.2
20260503213214 20 0 1.6 3.2 0.00 0.00 0.00 40 1018.2
20260503213008 20 6 6.4 9.7 0.00 0.00 0.00 41 1018.2
20260503212508 20 326 1.6 1.6 0.00 0.00 0.00 41 1018.3
20260503212214 20 342 1.6 4.8 0.00 0.00 0.00 40 1018.3
20260503212009 20 315 8.0 8.0 0.00 0.00 0.00 40 1018.3
20260503211508 20 326 8.0 9.7 0.00 0.00 0.00 39 1018.3
20260503211214 20 287 6.4 6.4 0.00 0.00 0.00 41 1018.4
20260503211007 20 257 9.7 11.3 0.00 0.00 0.00 41 1018.4
20260503210508 20 241 8.0 14.5 0.00 0.00 0.00 40 1018.4
20260503210215 20 11 0.0 3.2 0.00 0.00 0.00 43 1018.4
20260503210009 20 4 1.6 1.6 0.00 0.00 0.00 41 1018.4
20260503205507 20 291 3.2 9.7 0.00 0.00 0.00 41 1018.7
20260503205214 20 299 3.2 16.1 0.00 0.00 0.00 39 1018.7
20260503205010 20 298 1.6 8.0 0.00 0.00 0.00 39 1018.7
20260503204509 20 315 0.0 3.2 0.00 0.00 0.00 39 1018.7
20260503204214 20 263 3.2 6.4 0.00 0.00 0.00 40 1019.0
20260503204007 20 335 1.6 9.7 0.00 0.00 0.00 39 1019.0
20260503203508 20 275 3.2 8.0 0.00 0.00 0.00 42 1019.0
20260503203215 20 265 6.4 14.5 0.00 0.00 0.00 39 1019.0
20260503203008 20 350 4.8 11.3 0.00 0.00 0.00 39 1019.0
20260503202508 20 275 4.8 9.7 0.00 0.00 0.00 39 1019.1
20260503202214 20 311 4.8 6.4 0.00 0.00 0.00 38 1019.1
20260503202007 20 256 3.2 8.0 0.00 0.00 0.00 41 1019.1
20260503201508 20 323 3.2 4.8 0.00 0.00 0.00 41 1019.1
20260503201215 20 246 3.2 9.7 0.00 0.00 0.00 40 1019.5
20260503201009 20 304 6.4 6.4 0.00 0.00 0.00 40 1019.5
20260503200508 20 333 1.6 4.8 0.00 0.00 0.00 38 1019.5
20260503200213 20 319 0.0 4.8 0.00 0.00 0.00 38 1019.5
20260503200007 20 339 4.8 11.3 0.00 0.00 0.00 39 1019.5
20260503195511 20 302 14.5 14.5 0.00 0.00 0.00 38 1019.9
20260503195215 20 318 14.5 16.1 0.00 0.00 0.00 38 1019.9
20260503195008 20 267 6.4 8.0 0.00 0.00 0.00 37 1019.9
20260503194507 20 275 4.8 8.0 0.00 0.00 0.00 39 1019.9
20260503194214 20 306 9.7 16.1 0.00 0.00 0.00 40 1020.1
20260503194008 20 294 8.0 22.5 0.00 0.00 0.00 38 1020.1
20260503193509 20 313 11.3 11.3 0.00 0.00 0.00 38 1020.1
20260503193213 20 0 9.7 14.5 0.00 0.00 0.00 38 1020.1
20260503193009 20 332 11.3 11.3 0.00 0.00 0.00 41 1020.1
20260503192508 20 357 17.7 22.5 0.00 0.00 0.00 39 1020.3
20260503192214 20 0 3.2 4.8 0.00 0.00 0.00 44 1020.3
20260503192008 19 359 1.6 9.7 0.00 0.00 0.00 44 1020.3
20260503191509 19 289 3.2 4.8 0.00 0.00 0.00 42 1020.3
20260503191214 19 285 8.0 9.7 0.00 0.00 0.00 42 1020.5
20260503191008 19 222 1.6 1.6 0.00 0.00 0.00 45 1020.5
20260503190507 19 160 1.6 1.6 0.00 0.00 0.00 41 1020.5
20260503190215 19 291 11.3 16.1 0.00 0.00 0.00 42 1020.5
20260503190008 19 311 3.2 16.1 0.00 0.00 0.00 43 1020.5
20260503185508 19 275 4.8 8.0 0.00 0.00 0.00 40 1020.8
20260503185213 19 289 1.6 4.8 0.00 0.00 0.00 41 1020.8
20260503185007 19 322 0.0 3.2 0.00 0.00 0.00 42 1020.8
20260503184507 19 38 1.6 3.2 0.00 0.00 0.00 44 1020.8
20260503184214 19 326 0.0 6.4 0.00 0.00 0.00 42 1021.0
20260503184009 19 0 8.0 16.1 0.00 0.00 0.00 43 1021.0
20260503183509 19 305 1.6 4.8 0.00 0.00 0.00 41 1021.0
20260503183214 19 11 17.7 19.3 0.00 0.00 0.00 45 1021.0
20260503183007 19 241 6.4 8.0 0.00 0.00 0.00 42 1021.0
20260503182507 19 328 3.2 9.7 0.00 0.00 0.00 43 1021.2
20260503182214 19 298 3.2 11.3 0.00 0.00 0.00 43 1021.2
20260503182009 18 304 4.8 11.3 0.00 0.00 0.00 43 1021.2
20260503181509 18 315 6.4 14.5 0.00 0.00 0.00 42 1021.2
20260503181214 18 25 1.6 8.0 0.00 0.00 0.00 41 1021.3
20260503181008 18 251 0.0 4.8 0.00 0.00 0.00 44 1021.3
20260503180508 18 304 1.6 4.8 0.00 0.00 0.00 43 1021.3
20260503180214 18 17 8.0 8.0 0.00 0.00 0.00 45 1021.3
20260503180008 18 332 4.8 8.0 0.00 0.00 0.00 47 1021.3
20260503175509 18 325 1.6 6.4 0.00 0.00 0.00 48 1021.3
20260503175213 18 3 8.0 8.0 0.00 0.00 0.00 47 1021.3
20260503175007 18 296 0.0 8.0 0.00 0.00 0.00 48 1021.3
20260503174509 18 320 6.4 6.4 0.00 0.00 0.00 47 1021.3
20260503174214 17 54 1.6 1.6 0.00 0.00 0.00 47 1021.6
20260503174008 17 1 4.8 4.8 0.00 0.00 0.00 48 1021.6
20260503173508 17 272 0.0 3.2 0.00 0.00 0.00 50 1021.6
20260503173214 17 357 8.0 8.0 0.00 0.00 0.00 52 1021.6
20260503173007 17 282 4.8 11.3 0.00 0.00 0.00 48 1021.6
20260503172508 17 0 6.4 9.7 0.00 0.00 0.00 50 1021.8
20260503172213 17 340 4.8 4.8 0.00 0.00 0.00 49 1021.8
20260503172009 17 304 1.6 8.0 0.00 0.00 0.00 48 1021.8
20260503171507 17 287 4.8 9.7 0.00 0.00 0.00 47 1021.8
20260503171215 17 309 3.2 16.1 0.00 0.00 0.00 47 1022.1
20260503171008 17 288 4.8 4.8 0.00 0.00 0.00 52 1022.1
20260503170509 17 193 0.0 0.0 0.00 0.00 0.00 52 1022.1
20260503170215 17 213 0.0 4.8 0.00 0.00 0.00 48 1022.1
20260503160213 16 10 8.0 8.0 0.00 0.00 0.00 52 1022.4
20260503151007 15 30 3.2 6.4 0.00 0.00 0.00 55 1022.4
20260503150507 15 337 6.4 6.4 0.00 0.00 0.00 57 1022.4
20260503150214 15 103 1.6 3.2 0.00 0.00 0.00 58 1022.4
20260503140214 13 47 3.2 6.4 0.00 0.00 0.00 73 1022.3
20260503131217 11 359 0.0 4.8 0.00 0.00 0.00 83 1022.1
20260503131008 11 56 0.0 1.6 0.00 0.00 0.00 84 1022.1
20260503130509 11 347 0.0 1.6 0.00 0.00 0.00 86 1022.1
20260503130213 10 0 1.6 3.2 0.00 0.00 0.00 87 1022.1
20260503120214 7 329 3.2 6.4 0.00 0.00 0.00 96 1021.5
20260503110508 7 359 4.8 4.8 0.00 0.00 0.00 95 1020.9
20260503110214 7 0 3.2 6.4 0.00 0.00 0.00 95 1020.9
20260503100216 7 340 3.2 3.2 0.00 0.00 0.00 90 1020.1
20260503090510 8 359 8.0 8.0 0.00 0.00 0.00 86 1019.9
20260503090214 8 1 6.4 6.4 0.00 0.00 0.00 86 1019.9
20260503081508 8 347 3.2 4.8 0.00 0.00 0.00 83 1019.9
20260503081214 8 0 3.2 6.4 0.00 0.00 0.00 82 1019.7
20260503081008 9 359 4.8 4.8 0.00 0.00 0.00 82 1019.7
20260503080509 9 0 3.2 6.4 0.00 0.00 0.00 82 1019.7
20260503080214 9 343 1.6 3.2 0.00 0.00 0.00 82 1019.7